ProjectID,Date,Electric Generation,Electric Utility Import,Facility Electric Load
,YYYY-MM-DD,kW,kW,kW
344,2016-06-01,0.0,,0.0
344,2016-06-02,0.0,,0.0
344,2016-06-03,0.0,,0.0
344,2016-06-04,0.0,,0.0
344,2016-06-05,0.0,,0.0
344,2016-06-06,0.0,,0.0
344,2016-06-07,0.0008333333333333334,,0.0008333333333333334
344,2016-06-08,12.942499999999995,,12.942499999999995
344,2016-06-09,30.295833333333334,,30.295833333333334
344,2016-06-10,29.9275,,29.9275
344,2016-06-11,21.754999999999995,,21.754999999999995
344,2016-06-12,28.521666666666665,,28.521666666666665
344,2016-06-13,26.853333333333328,,26.853333333333328
344,2016-06-14,29.63166666666666,,29.63166666666666
344,2016-06-15,28.17416666666666,,28.17416666666666
344,2016-06-16,8.123333333333337,,8.123333333333337
344,2016-06-17,24.865,,24.865
344,2016-06-18,27.097499999999997,,27.097499999999997
344,2016-06-19,27.174999999999997,,27.174999999999997
344,2016-06-20,26.814166666666665,,26.814166666666665
344,2016-06-21,22.07166666666666,,22.07166666666666
344,2016-06-22,27.05583333333333,,27.05583333333333
344,2016-06-23,10.881666666666668,,10.881666666666668
344,2016-06-24,27.16,,27.16
344,2016-06-25,25.52333333333333,,25.52333333333333
344,2016-06-26,26.095833333333328,,26.095833333333328
344,2016-06-27,19.68166666666667,,19.68166666666667
344,2016-06-28,8.271666666666667,,8.271666666666667
344,2016-06-29,23.035833333333326,,23.035833333333326
344,2016-06-30,27.42249999999999,,27.42249999999999
344,2016-07-01,15.045,,15.045
344,2016-07-02,26.516666666666662,,26.516666666666662
344,2016-07-03,18.877499999999998,,18.877499999999998
344,2016-07-04,25.974999999999994,,25.974999999999994
344,2016-07-05,18.055,,18.055
344,2016-07-06,25.875833333333322,,25.875833333333322
344,2016-07-07,18.165833333333335,,18.165833333333335
344,2016-07-08,21.91166666666666,,21.91166666666666
344,2016-07-09,8.713333333333333,,8.713333333333333
344,2016-07-10,18.682500000000005,,18.682500000000005
344,2016-07-11,23.584999999999994,,23.584999999999994
344,2016-07-12,26.68499999999999,,26.68499999999999
344,2016-07-13,17.083333333333332,,17.083333333333332
344,2016-07-14,18.4125,,18.4125
344,2016-07-15,18.161666666666672,,18.161666666666672
344,2016-07-16,20.799999999999997,,20.799999999999997
344,2016-07-17,23.899999999999988,,23.899999999999988
344,2016-07-18,20.6375,,20.6375
344,2016-07-19,26.61916666666667,,26.61916666666667
344,2016-07-20,26.254999999999985,,26.254999999999985
344,2016-07-21,25.955,,25.955
344,2016-07-22,24.615000000000006,,24.615000000000006
344,2016-07-23,24.422499999999996,,24.422499999999996
344,2016-07-24,24.062499999999996,,24.062499999999996
344,2016-07-25,19.808333333333334,,19.808333333333334
344,2016-07-26,24.93916666666666,,24.93916666666666
344,2016-07-27,25.759999999999994,,25.759999999999994
344,2016-07-28,21.83416666666666,,21.83416666666666
344,2016-07-29,19.444166666666668,,19.444166666666668
344,2016-07-30,14.551666666666664,,14.551666666666664
344,2016-07-31,9.324166666666667,,9.324166666666667
344,2016-08-01,11.055833333333332,,11.055833333333332
344,2016-08-02,18.997500000000002,,18.997500000000002
344,2016-08-03,26.603333333333328,,26.603333333333328
344,2016-08-04,22.44416666666666,,22.44416666666666
344,2016-08-05,23.10083333333333,,23.10083333333333
344,2016-08-06,16.345833333333335,,16.345833333333335
344,2016-08-07,25.575,,25.575
344,2016-08-08,18.940833333333334,,18.940833333333334
344,2016-08-09,24.867499999999996,,24.867499999999996
344,2016-08-10,11.149166666666668,,11.149166666666668
344,2016-08-11,20.45833333333334,,20.45833333333334
344,2016-08-12,22.698333333333327,,22.698333333333327
344,2016-08-13,23.040833333333328,,23.040833333333328
344,2016-08-14,23.058333333333334,,23.058333333333334
344,2016-08-15,22.461666666666662,,22.461666666666662
344,2016-08-16,20.07333333333333,,20.07333333333333
344,2016-08-17,23.831666666666667,,23.831666666666667
344,2016-08-18,14.0625,,14.0625
344,2016-08-19,18.93583333333333,,18.93583333333333
344,2016-08-20,18.996666666666666,,18.996666666666666
344,2016-08-21,17.01666666666667,,17.01666666666667
344,2016-08-22,25.51833333333333,,25.51833333333333
344,2016-08-23,24.829166666666662,,24.829166666666662
344,2016-08-24,23.97083333333332,,23.97083333333332
344,2016-08-25,19.683333333333334,,19.683333333333334
344,2016-08-26,19.63083333333333,,19.63083333333333
344,2016-08-27,22.827499999999997,,22.827499999999997
344,2016-08-28,22.971666666666653,,22.971666666666653
344,2016-08-29,22.510833333333327,,22.510833333333327
344,2016-08-30,22.638333333333325,,22.638333333333325
344,2016-08-31,17.179166666666664,,17.179166666666664
344,2016-09-01,6.964999999999999,,6.964999999999999
344,2016-09-02,22.514166666666664,,22.514166666666664
344,2016-09-03,13.045833333333333,,13.045833333333333
344,2016-09-04,23.586666666666662,,23.586666666666662
344,2016-09-05,16.146666666666665,,16.146666666666665
344,2016-09-06,7.710833333333333,,7.710833333333333
344,2016-09-07,17.007500000000004,,17.007500000000004
344,2016-09-08,19.944166666666668,,19.944166666666668
344,2016-09-09,14.514999999999999,,14.514999999999999
344,2016-09-10,18.703333333333333,,18.703333333333333
344,2016-09-11,18.617500000000003,,18.617500000000003
344,2016-09-12,18.4425,,18.4425
344,2016-09-13,21.874166666666653,,21.874166666666653
344,2016-09-14,20.046666666666667,,20.046666666666667
344,2016-09-15,22.93166666666666,,22.93166666666666
344,2016-09-16,17.660833333333333,,17.660833333333333
344,2016-09-17,20.474999999999998,,20.474999999999998
344,2016-09-18,11.244166666666665,,11.244166666666665
344,2016-09-19,2.7991666666666677,,2.7991666666666677
344,2016-09-20,13.880833333333337,,13.880833333333337
344,2016-09-21,16.235000000000003,,16.235000000000003
344,2016-09-22,20.59833333333334,,20.59833333333334
344,2016-09-23,19.268333333333334,,19.268333333333334
344,2016-09-24,15.142499999999998,,15.142499999999998
344,2016-09-25,21.913333333333327,,21.913333333333327
344,2016-09-26,18.620833333333334,,18.620833333333334
344,2016-09-27,15.161666666666667,,15.161666666666667
344,2016-09-28,6.090833333333333,,6.090833333333333
344,2016-09-29,3.685,,3.685
344,2016-09-30,3.3675000000000015,,3.3675000000000015
344,2016-10-01,3.255833333333334,,3.255833333333334
344,2016-10-02,4.835833333333333,,4.835833333333333
344,2016-10-03,10.791666666666666,,10.791666666666666
344,2016-10-04,9.345833333333333,,9.345833333333333
344,2016-10-05,18.118333333333332,,18.118333333333332
344,2016-10-06,18.140000000000004,,18.140000000000004
344,2016-10-07,18.658333333333335,,18.658333333333335
344,2016-10-08,4.6775,,4.6775
344,2016-10-09,1.8883333333333334,,1.8883333333333334
344,2016-10-10,19.985833333333336,,19.985833333333336
344,2016-10-11,18.801666666666666,,18.801666666666666
344,2016-10-12,13.558333333333335,,13.558333333333335
344,2016-10-13,10.155000000000001,,10.155000000000001
344,2016-10-14,18.446666666666665,,18.446666666666665
344,2016-10-15,14.273333333333335,,14.273333333333335
344,2016-10-16,13.810833333333335,,13.810833333333335
344,2016-10-17,14.475833333333334,,14.475833333333334
344,2016-10-18,15.663333333333329,,15.663333333333329
344,2016-10-19,13.290833333333332,,13.290833333333332
344,2016-10-20,6.257500000000001,,6.257500000000001
344,2016-10-21,4.220833333333333,,4.220833333333333
344,2016-10-22,3.6666666666666665,,3.6666666666666665
344,2016-10-23,15.775000000000004,,15.775000000000004
344,2016-10-24,13.394166666666665,,13.394166666666665
344,2016-10-25,9.870833333333332,,9.870833333333332
344,2016-10-26,14.830833333333336,,14.830833333333336
344,2016-10-27,1.4383333333333337,,1.4383333333333337
344,2016-10-28,10.854166666666666,,10.854166666666666
344,2016-10-29,11.930000000000001,,11.930000000000001
344,2016-10-30,11.418333333333331,,11.418333333333331
344,2016-10-31,15.443333333333335,,15.443333333333335
344,2016-11-01,14.117500000000005,,14.117500000000005
344,2016-11-02,12.350833333333332,,12.350833333333332
344,2016-11-03,5.220000000000001,,5.220000000000001
344,2016-11-04,13.715000000000002,,13.715000000000002
344,2016-11-05,13.117500000000001,,13.117500000000001
344,2016-11-06,12.08,,12.08
344,2016-11-07,13.495833333333335,,13.495833333333335
344,2016-11-08,12.764166666666666,,12.764166666666666
344,2016-11-09,2.105833333333334,,2.105833333333334
344,2016-11-10,12.791666666666664,,12.791666666666664
344,2016-11-11,12.730833333333335,,12.730833333333335
344,2016-11-12,13.250833333333333,,13.250833333333333
344,2016-11-13,12.4425,,12.4425
344,2016-11-14,10.700000000000001,,10.700000000000001
344,2016-11-15,0.9674999999999997,,0.9674999999999997
344,2016-11-16,11.367500000000001,,11.367500000000001
344,2016-11-17,11.479999999999999,,11.479999999999999
344,2016-11-18,11.362500000000004,,11.362500000000004
344,2016-11-19,10.340833333333334,,10.340833333333334
344,2016-11-20,3.9041666666666672,,3.9041666666666672
344,2016-11-21,3.171666666666667,,3.171666666666667
344,2016-11-22,10.609166666666665,,10.609166666666665
344,2016-11-23,11.767499999999998,,11.767499999999998
344,2016-11-24,3.345,,3.345
344,2016-11-25,4.974166666666668,,4.974166666666668
344,2016-11-26,6.849166666666666,,6.849166666666666
344,2016-11-27,9.481666666666666,,9.481666666666666
344,2016-11-28,10.031666666666666,,10.031666666666666
344,2016-11-29,0.4808333333333333,,0.4808333333333333
344,2016-11-30,1.4400000000000002,,1.4400000000000002
344,2016-12-01,7.914999999999999,,7.914999999999999
344,2016-12-02,8.995833333333335,,8.995833333333335
344,2016-12-03,9.694166666666666,,9.694166666666666
344,2016-12-04,9.785,,9.785
344,2016-12-05,8.826666666666666,,8.826666666666666
344,2016-12-06,4.3950000000000005,,4.3950000000000005
344,2016-12-07,2.056666666666667,,2.056666666666667
344,2016-12-08,4.0575,,4.0575
344,2016-12-09,8.096666666666666,,8.096666666666666
344,2016-12-10,5.614166666666667,,5.614166666666667
344,2016-12-11,4.838333333333334,,4.838333333333334
344,2016-12-12,2.1275,,2.1275
344,2016-12-13,7.290833333333333,,7.290833333333333
344,2016-12-14,9.176666666666668,,9.176666666666668
344,2016-12-15,6.532500000000002,,6.532500000000002
344,2016-12-16,8.594166666666668,,8.594166666666668
344,2016-12-17,0.0825,,0.0825
344,2016-12-18,1.0975,,1.0975
344,2016-12-19,9.581666666666667,,9.581666666666667
344,2016-12-20,9.34666666666667,,9.34666666666667
344,2016-12-21,5.083333333333333,,5.083333333333333
344,2016-12-22,5.909166666666667,,5.909166666666667
344,2016-12-23,8.49,,8.49
344,2016-12-24,1.6458333333333333,,1.6458333333333333
344,2016-12-25,9.3975,,9.3975
344,2016-12-26,2.0433333333333334,,2.0433333333333334
344,2016-12-27,5.486666666666667,,5.486666666666667
344,2016-12-28,3.440000000000001,,3.440000000000001
344,2016-12-29,0.6216666666666666,,0.6216666666666666
344,2016-12-30,5.311666666666667,,5.311666666666667
344,2016-12-31,7.180000000000002,,7.180000000000002
344,2017-01-01,9.609166666666669,,9.609166666666669
344,2017-01-02,1.5766666666666669,,1.5766666666666669
344,2017-01-03,1.0858333333333332,,1.0858333333333332
344,2017-01-04,5.571666666666666,,5.571666666666666
344,2017-01-05,7.224999999999999,,7.224999999999999
344,2017-01-06,5.225833333333333,,5.225833333333333
344,2017-01-07,0.1366666666666667,,0.1366666666666667
344,2017-01-08,0.15916666666666668,,0.15916666666666668
344,2017-01-09,0.51,,0.51
344,2017-01-10,0.5283333333333333,,0.5283333333333333
344,2017-01-11,6.594166666666666,,6.594166666666666
344,2017-01-12,7.06,,7.06
344,2017-01-13,10.278333333333334,,10.278333333333334
344,2017-01-14,4.714166666666667,,4.714166666666667
344,2017-01-15,3.904166666666668,,3.904166666666668
344,2017-01-16,11.340000000000003,,11.340000000000003
344,2017-01-17,1.14,,1.14
344,2017-01-18,1.3925,,1.3925
344,2017-01-19,7.925,,7.925
344,2017-01-20,3.299166666666667,,3.299166666666667
344,2017-01-21,4.54,,4.54
344,2017-01-22,2.9125,,2.9125
344,2017-01-23,1.3074999999999999,,1.3074999999999999
344,2017-01-24,1.4500000000000004,,1.4500000000000004
344,2017-01-25,12.417500000000002,,12.417500000000002
344,2017-01-26,6.105833333333334,,6.105833333333334
344,2017-01-27,4.3125,,4.3125
344,2017-01-28,3.8525000000000005,,3.8525000000000005
344,2017-01-29,12.153333333333334,,12.153333333333334
344,2017-01-30,9.715833333333334,,9.715833333333334
344,2017-01-31,1.1441666666666666,,1.1441666666666666
344,2017-02-01,7.086666666666666,,7.086666666666666
344,2017-02-02,10.18,,10.18
344,2017-02-03,10.170000000000002,,10.170000000000002
344,2017-02-04,15.311666666666667,,15.311666666666667
344,2017-02-05,5.713333333333334,,5.713333333333334
344,2017-02-06,14.548333333333332,,14.548333333333332
344,2017-02-07,1.9533333333333334,,1.9533333333333334
344,2017-02-08,11.6275,,11.6275
344,2017-02-09,0.03166666666666667,,0.03166666666666667
344,2017-02-10,0.34999999999999987,,0.34999999999999987
344,2017-02-11,1.1449999999999998,,1.1449999999999998
344,2017-02-12,0.30749999999999994,,0.30749999999999994
344,2017-02-13,9.301666666666666,,9.301666666666666
344,2017-02-14,12.054166666666669,,12.054166666666669
344,2017-02-15,8.703333333333333,,8.703333333333333
344,2017-02-16,16.957500000000003,,16.957500000000003
344,2017-02-17,17.895000000000007,,17.895000000000007
344,2017-02-18,16.506666666666668,,16.506666666666668
344,2017-02-19,13.235,,13.235
344,2017-02-20,18.053333333333335,,18.053333333333335
344,2017-02-21,14.172500000000001,,14.172500000000001
344,2017-02-22,9.388333333333335,,9.388333333333335
344,2017-02-23,10.038333333333334,,10.038333333333334
344,2017-02-24,16.28666666666666,,16.28666666666666
344,2017-02-25,12.503333333333332,,12.503333333333332
344,2017-02-26,18.013333333333332,,18.013333333333332
344,2017-02-27,14.093333333333335,,14.093333333333335
344,2017-02-28,14.173333333333334,,14.173333333333334
344,2017-03-01,4.9575,,4.9575
344,2017-03-02,20.963333333333335,,20.963333333333335
344,2017-03-03,16.85,,16.85
344,2017-03-04,16.974999999999998,,16.974999999999998
344,2017-03-05,22.677499999999995,,22.677499999999995
344,2017-03-06,19.419166666666666,,19.419166666666666
344,2017-03-07,5.043333333333333,,5.043333333333333
344,2017-03-08,18.022499999999997,,18.022499999999997
344,2017-03-09,21.24083333333333,,21.24083333333333
344,2017-03-10,0.3599999999999999,,0.3599999999999999
344,2017-03-11,1.1458333333333333,,1.1458333333333333
344,2017-03-12,6.2700000000000005,,6.2700000000000005
344,2017-03-13,20.350833333333334,,20.350833333333334
344,2017-03-14,0.07583333333333335,,0.07583333333333335
344,2017-03-15,0.27333333333333326,,0.27333333333333326
344,2017-03-16,0.9191666666666666,,0.9191666666666666
344,2017-03-17,2.4875000000000003,,2.4875000000000003
344,2017-03-18,1.1249999999999998,,1.1249999999999998
344,2017-03-19,14.868333333333332,,14.868333333333332
344,2017-03-20,22.949166666666667,,22.949166666666667
344,2017-03-21,19.97833333333333,,19.97833333333333
344,2017-03-22,25.500833333333333,,25.500833333333333
344,2017-03-23,25.34333333333333,,25.34333333333333
344,2017-03-24,10.457500000000001,,10.457500000000001
344,2017-03-25,7.525000000000001,,7.525000000000001
344,2017-03-26,4.500000000000001,,4.500000000000001
344,2017-03-27,7.838333333333332,,7.838333333333332
344,2017-03-28,3.235833333333334,,3.235833333333334
344,2017-03-29,21.685833333333324,,21.685833333333324
344,2017-03-30,17.701666666666668,,17.701666666666668
344,2017-03-31,1.7233333333333338,,1.7233333333333338
344,2017-04-01,10.446666666666667,,10.446666666666667
344,2017-04-02,25.584166666666658,,25.584166666666658
344,2017-04-03,21.190833333333334,,21.190833333333334
344,2017-04-04,5.779166666666668,,5.779166666666668
344,2017-04-05,15.158333333333333,,15.158333333333333
344,2017-04-06,2.450833333333333,,2.450833333333333
344,2017-04-07,7.649999999999999,,7.649999999999999
344,2017-04-08,27.226666666666663,,27.226666666666663
344,2017-04-09,26.14083333333333,,26.14083333333333
344,2017-04-10,24.51499999999999,,24.51499999999999
344,2017-04-11,23.24083333333333,,23.24083333333333
344,2017-04-12,12.891666666666667,,12.891666666666667
344,2017-04-13,22.77083333333333,,22.77083333333333
344,2017-04-14,23.722499999999997,,23.722499999999997
344,2017-04-15,15.915000000000001,,15.915000000000001
344,2017-04-16,20.73333333333333,,20.73333333333333
344,2017-04-17,14.50166666666667,,14.50166666666667
344,2017-04-18,26.715833333333325,,26.715833333333325
344,2017-04-19,12.372500000000004,,12.372500000000004
344,2017-04-20,17.22833333333333,,17.22833333333333
344,2017-04-21,7.260000000000001,,7.260000000000001
344,2017-04-22,6.234999999999999,,6.234999999999999
344,2017-04-23,24.17666666666666,,24.17666666666666
344,2017-04-24,10.555000000000001,,10.555000000000001
344,2017-04-25,3.883333333333333,,3.883333333333333
344,2017-04-26,6.900833333333332,,6.900833333333332
344,2017-04-27,16.82916666666667,,16.82916666666667
344,2017-04-28,24.432499999999994,,24.432499999999994
344,2017-04-29,21.480833333333333,,21.480833333333333
344,2017-04-30,10.375000000000002,,10.375000000000002
344,2017-05-01,18.4575,,18.4575
344,2017-05-02,21.78083333333333,,21.78083333333333
344,2017-05-03,21.444999999999993,,21.444999999999993
344,2017-05-04,26.402499999999993,,26.402499999999993
344,2017-05-05,2.555,,2.555
344,2017-05-06,2.450833333333334,,2.450833333333334
344,2017-05-07,0.024166666666666673,,0.024166666666666673
344,2017-05-08,0.025000000000000005,,0.025000000000000005
344,2017-05-09,0.1075,,0.1075
344,2017-05-10,1.3074999999999997,,1.3074999999999997
344,2017-05-11,2.3491666666666675,,2.3491666666666675
344,2017-05-12,1.8200000000000003,,1.8200000000000003
344,2017-05-13,3.659166666666666,,3.659166666666666
344,2017-05-14,0.1991666666666666,,0.1991666666666666
344,2017-05-15,0.2624999999999999,,0.2624999999999999
344,2017-05-16,2.3841666666666677,,2.3841666666666677
344,2017-05-17,4.420833333333333,,4.420833333333333
344,2017-05-18,0.13833333333333334,,0.13833333333333334
344,2017-05-19,0.8341666666666662,,0.8341666666666662
344,2017-05-20,2.2608333333333337,,2.2608333333333337
344,2017-05-21,9.26666666666667,,9.26666666666667
344,2017-05-22,1.3458333333333334,,1.3458333333333334
344,2017-05-23,2.250833333333334,,2.250833333333334
344,2017-05-24,8.284166666666668,,8.284166666666668
344,2017-05-25,2.0125000000000006,,2.0125000000000006
344,2017-05-26,0.6233333333333332,,0.6233333333333332
344,2017-05-27,5.030000000000001,,5.030000000000001
344,2017-05-28,5.968333333333336,,5.968333333333336
344,2017-05-29,2.6791666666666667,,2.6791666666666667
344,2017-05-30,3.5775000000000006,,3.5775000000000006
344,2017-05-31,0.898333333333333,,0.898333333333333
344,2017-06-01,11.416666666666663,,11.416666666666663
344,2017-06-02,11.618333333333338,,11.618333333333338
344,2017-06-03,10.489166666666668,,10.489166666666668
344,2017-06-04,5.375000000000001,,5.375000000000001
344,2017-06-05,0.022500000000000003,,0.022500000000000003
344,2017-06-06,2.3458333333333337,,2.3458333333333337
344,2017-06-07,0.7424999999999997,,0.7424999999999997
344,2017-06-08,8.268333333333334,,8.268333333333334
344,2017-06-09,5.254166666666666,,5.254166666666666
344,2017-06-10,4.294999999999999,,4.294999999999999
344,2017-06-11,1.6200000000000012,,1.6200000000000012
344,2017-06-12,0.020833333333333332,,0.020833333333333332
344,2017-06-13,0.020833333333333332,,0.020833333333333332
344,2017-06-14,0.4641666666666664,,0.4641666666666664
344,2017-06-15,0.020833333333333332,,0.020833333333333332
344,2017-06-16,0.020833333333333332,,0.020833333333333332
344,2017-06-17,0.020833333333333332,,0.020833333333333332
344,2017-06-18,0.020833333333333332,,0.020833333333333332
344,2017-06-19,0.02,,0.02
344,2017-06-20,0.020833333333333332,,0.020833333333333332
344,2017-06-21,0.020000000000000004,,0.020000000000000004
344,2017-06-22,0.02083333333333334,,0.02083333333333334
344,2017-06-23,0.020833333333333332,,0.020833333333333332
344,2017-06-24,0.02,,0.02
344,2017-06-25,0.022500000000000003,,0.022500000000000003
344,2017-06-26,0.02,,0.02
344,2017-06-27,0.021666666666666667,,0.021666666666666667
344,2017-06-28,0.020833333333333332,,0.020833333333333332
344,2017-06-29,0.021666666666666667,,0.021666666666666667
344,2017-06-30,0.020833333333333332,,0.020833333333333332
344,2017-07-01,0.021666666666666667,,0.021666666666666667
344,2017-07-02,0.02166666666666667,,0.02166666666666667
344,2017-07-03,0.020833333333333332,,0.020833333333333332
344,2017-07-04,0.02333333333333334,,0.02333333333333334
344,2017-07-05,0.021666666666666664,,0.021666666666666664
344,2017-07-06,0.021666666666666667,,0.021666666666666667
344,2017-07-07,0.02083333333333334,,0.02083333333333334
344,2017-07-08,0.022500000000000003,,0.022500000000000003
344,2017-07-09,0.021666666666666667,,0.021666666666666667
344,2017-07-10,0.022500000000000006,,0.022500000000000006
344,2017-07-11,0.021666666666666667,,0.021666666666666667
344,2017-07-12,0.02083333333333334,,0.02083333333333334
344,2017-07-13,0.02,,0.02
344,2017-07-14,0.02,,0.02
344,2017-07-15,0.02166666666666667,,0.02166666666666667
344,2017-07-16,0.022500000000000003,,0.022500000000000003
344,2017-07-17,0.02166666666666667,,0.02166666666666667
344,2017-07-18,0.020833333333333332,,0.020833333333333332
344,2017-07-19,0.020833333333333332,,0.020833333333333332
344,2017-07-20,0.019999999999999997,,0.019999999999999997
344,2017-07-21,0.021666666666666667,,0.021666666666666667
344,2017-07-22,0.020833333333333332,,0.020833333333333332
344,2017-07-23,0.020000000000000004,,0.020000000000000004
344,2017-07-24,0.020833333333333332,,0.020833333333333332
344,2017-07-25,0.021666666666666667,,0.021666666666666667
344,2017-07-26,0.02083333333333333,,0.02083333333333333
344,2017-07-27,0.020833333333333332,,0.020833333333333332
344,2017-07-28,0.020833333333333332,,0.020833333333333332
344,2017-07-29,0.021666666666666667,,0.021666666666666667
344,2017-07-30,0.021666666666666667,,0.021666666666666667
344,2017-07-31,0.010833333333333332,,0.010833333333333332
344,2017-08-01,0.0,,0.0
344,2017-08-02,0.6325,,0.6325
344,2017-08-03,5.8833333333333355,,5.8833333333333355
344,2017-08-04,0.14666666666666667,,0.14666666666666667
344,2017-08-05,9.864166666666668,,9.864166666666668
344,2017-08-06,11.775833333333333,,11.775833333333333
344,2017-08-07,2.2050000000000005,,2.2050000000000005
344,2017-08-08,3.3583333333333325,,3.3583333333333325
344,2017-08-09,0.020000000000000004,,0.020000000000000004
344,2017-08-10,0.03833333333333334,,0.03833333333333334
344,2017-08-11,0.01,,0.01
344,2017-08-12,0.0,,0.0
344,2017-08-13,0.0,,0.0
344,2017-08-14,0.0,,0.0
344,2017-08-15,0.0,,0.0
344,2017-08-16,0.0,,0.0
344,2017-08-17,0.0,,0.0
344,2017-08-18,0.0,,0.0
344,2017-08-19,0.0,,0.0
344,2017-08-20,0.0,,0.0
344,2017-08-21,10.906666666666666,,10.906666666666666
344,2017-08-22,19.461666666666662,,19.461666666666662
344,2017-08-23,21.0275,,21.0275
344,2017-08-24,20.908333333333335,,20.908333333333335
344,2017-08-25,15.44,,15.44
344,2017-08-26,22.66416666666666,,22.66416666666666
344,2017-08-27,19.639166666666664,,19.639166666666664
344,2017-08-28,15.964166666666666,,15.964166666666666
344,2017-08-29,3.1199999999999997,,3.1199999999999997
344,2017-08-30,22.3425,,22.3425
344,2017-08-31,17.772500000000004,,17.772500000000004
344,2017-09-01,23.182499999999994,,23.182499999999994
344,2017-09-02,10.036666666666667,,10.036666666666667
344,2017-09-03,8.238333333333335,,8.238333333333335
344,2017-09-04,21.94083333333332,,21.94083333333332
344,2017-09-05,19.635833333333334,,19.635833333333334
344,2017-09-06,4.540000000000001,,4.540000000000001
344,2017-09-07,20.623333333333335,,20.623333333333335
344,2017-09-08,19.174166666666668,,19.174166666666668
344,2017-09-09,18.874999999999996,,18.874999999999996